Location: Ernsee
(50.8780°N, 12.0389°E)
Time: 01:31:04
(UTC+00:00)

Cosmos 773 Rocket - Pass Details

Date: 20 January 2020
Orbit: 746 x 776 km, 74.1° (Epoch: 22 February)

Event Time Altitude Azimuth Distance (km) Brightness Sun altitude
Exits shadow 04:55:06 13° 216° (SW) 2,106 6.0 -19.8°
Maximum altitude 04:59:46 65° 297° (WNW) 853 3.9 -19.1°
Drops below altitude 10° 05:05:02 10° 20° (NNE) 2,328 6.6 -18.3°
Sets 05:07:27 0° 24° (NNE) 3,255 7.4 -17.9°
